This demonstration page uses our WeatherBlox Daily Observations layout. Learn more.

Left ArrowRight Arrow

Hourly Observations for February 23, 2022

Temp ( °F °C ) Dew Point ( °F °C ) Humidity (%) Winds ( mph kmh ) Pressure ( in mb ) Visibility ( mi km ) Precip ( " mm )
12:15 am 00:15 Mostly Cloudy 0 -18 -10 -23.3 63 63 N 17 28 30.82 1044 10 16 0.00 0.00
12:35 am 00:35 Mostly Cloudy -1 -18.1 -10 -23.2 65 65 N 17 28 30.82 1044 10 16 0.00 0.00
12:55 am 00:55 Cloudy -1 -18.1 -10 -23.5 63 63 N 15 24 30.84 1044 10 16 0.00 0.00
1:15 am 01:15 Cloudy -1 -18.1 -10 -23.5 63 63 N 17 28 30.85 1045 10 16 0.00 0.00
1:35 am 01:35 Mostly Cloudy -1 -18.2 -10 -23.5 63 63 N 17 28 30.86 1045 10 16 0.00 0.00
1:55 am 01:55 Cloudy -1 -18.3 -10 -23.5 64 64 N 18 30 30.86 1045 10 16 0.00 0.00
2:15 am 02:15 Cloudy -1 -18.3 -10 -23.5 64 64 N 17 28 30.84 1044 10 16 0.00 0.00
2:35 am 02:35 Cloudy -1 -18.3 -10 -23.5 64 64 N 16 26 30.84 1044 10 16 0.00 0.00
2:55 am 02:55 Cloudy -1 -18.3 -10 -23.5 64 64 N 13 20 30.84 1044 10 16 0.00 0.00
3:15 am 03:15 Cloudy -1 -18.5 -10 -23.6 64 64 N 13 20 30.86 1045 10 16 0.00 0.00
3:35 am 03:35 Cloudy -1 -18.1 -10 -23.3 64 64 N 10 17 30.86 1045 10 16 0.00 0.00
3:55 am 03:55 Cloudy -1 -18.2 -10 -23.5 63 63 N 13 20 30.84 1044 10 16 0.00 0.00
4:15 am 04:15 Cloudy -1 -18.1 -10 -23.5 63 63 N 17 28 30.83 1044 10 16 0.00 0.00
4:35 am 04:35 Cloudy -1 -18.2 -10 -23.5 63 63 N 15 24 30.84 1044 10 16 0.00 0.00
4:55 am 04:55 Cloudy -1 -18.2 -10 -23.5 63 63 N 14 22 30.85 1045 10 16 0.00 0.00
5:15 am 05:15 Cloudy -1 -18.2 -10 -23.6 63 63 N 14 22 30.86 1045 10 16 0.00 0.00
5:35 am 05:35 Cloudy -1 -18.2 -10 -23.6 63 63 N 16 26 30.86 1045 10 16 0.00 0.00
5:55 am 05:55 Cloudy -1 -18.1 -10 -23.6 62 62 N 13 20 30.86 1045 10 16 0.00 0.00
6:15 am 06:15 Cloudy 0 -18 -10 -23.5 62 62 N 10 17 30.84 1045 10 16 0.00 0.00
6:35 am 06:35 Cloudy 0 -18 -11 -23.8 61 61 N 14 22 30.84 1045 10 16 0.00 0.00
6:55 am 06:55 Cloudy 0 -18 -11 -23.8 61 61 N 13 20 30.84 1045 10 16 0.00 0.00
7:15 am 07:15 Mostly Cloudy -1 -18.3 -11 -24 61 61 N 13 20 30.85 1045 10 16 0.00 0.00
7:35 am 07:35 Sunny -1 -18.5 -11 -24.1 62 62 N 13 20 30.84 1044 10 16 0.00 0.00
7:55 am 07:55 Sunny -1 -18.3 -11 -24.1 61 61 N 14 22 30.84 1044 10 16 0.00 0.00
8:15 am 08:15 Mostly Cloudy 0 -17.7 -11 -23.8 59 59 N 16 26 30.83 1044 10 16 0.00 0.00
8:35 am 08:35 Cloudy 1 -17 -11 -23.7 56 56 N 14 22 30.82 1044 10 16 0.00 0.00
8:55 am 08:55 Partly Cloudy 1 -17 -11 -24.1 54 54 NNE 17 28 30.83 1044 10 16 0.00 0.00
9:15 am 09:15 Sunny 3 -16.3 -11 -24 52 52 NNE 14 22 30.83 1044 10 16 0.00 0.00
9:35 am 09:35 Sunny 3 -16.1 -11 -24.1 50 50 N 13 20 30.82 1044 10 16 0.00 0.00
9:55 am 09:55 Sunny 3 -15.9 -12 -24.3 49 49 NNE 10 17 30.83 1044 10 16 0.00 0.00
10:15 am 10:15 Sunny 5 -15.2 -12 -24.2 46 46 NNE 10 17 30.81 1043 10 16 0.00 0.00
10:35 am 10:35 Sunny 5 -15 -12 -24.7 44 44 NE 10 17 30.81 1043 10 16 0.00 0.00
10:55 am 10:55 Sunny 6 -14.6 -12 -24.6 43 43 NNE 8 13 30.81 1043 10 16 0.00 0.00
11:15 am 11:15 Sunny 7 -14 -12 -24.3 42 42 NE 10 17 30.79 1043 10 16 0.00 0.00
11:35 am 11:35 Sunny 8 -13.6 -12 -24.2 41 41 NE 9 15 30.79 1043 10 16 0.00 0.00
11:55 am 11:55 Sunny 9 -12.9 -11 -24.1 39 39 NE 7 11 30.77 1042 10 16 0.00 0.00
12:15 pm 12:15 Sunny 10 -12.5 -10 -23.5 40 40 NE 12 19 30.75 1041 10 16 0.00 0.00
12:35 pm 12:35 Sunny 10 -12.1 -10 -23.3 39 39 NE 8 13 30.73 1041 10 16 0.00 0.00
12:55 pm 12:55 Sunny 10 -12 -10 -23.4 38 38 NNE 8 13 30.71 1040 10 16 0.00 0.00
1:15 pm 13:15 Sunny 11 -11.8 -10 -23.5 37 37 NNE 8 13 30.69 1039 10 16 0.00 0.00
1:35 pm 13:35 Sunny 12 -11.3 -10 -23.2 37 37 NE 7 11 30.67 1039 10 16 0.00 0.00
1:55 pm 13:55 Sunny 13 -10.7 -9 -22.8 37 37 NE 8 13 30.64 1038 10 16 0.00 0.00
2:15 pm 14:15 Sunny 13 -10.7 -9 -22.7 37 37 NNE 8 13 30.62 1037 10 16 0.00 0.00
2:35 pm 14:35 Sunny 14 -10.2 -9 -22.5 36 36 NNE 7 11 30.60 1036 10 16 0.00 0.00
2:55 pm 14:55 Sunny 14 -10 -8 -22.4 36 36 NE 8 13 30.59 1036 10 16 0.00 0.00
3:15 pm 15:15 Sunny 14 -9.9 -8 -22.3 36 36 NE 10 17 30.59 1036 10 16 0.00 0.00
3:35 pm 15:35 Sunny 15 -9.5 -8 -22 36 36 ENE 8 13 30.58 1036 10 16 0.00 0.00
3:55 pm 15:55 Sunny 14 -9.8 -8 -22 37 37 E 9 15 30.58 1036 10 16 0.00 0.00
4:15 pm 16:15 Sunny 15 -9.5 -7 -21.9 36 36 E 7 11 30.57 1035 10 16 0.00 0.00
4:35 pm 16:35 Sunny 15 -9.6 -7 -21.8 37 37 ENE 13 20 30.56 1035 10 16 0.00 0.00
4:55 pm 16:55 Sunny 14 -9.9 -7 -21.8 37 37 ENE 12 19 30.56 1035 10 16 0.00 0.00
5:15 pm 17:15 Sunny 14 -10.1 -7 -21.9 38 38 ENE 13 20 30.56 1035 10 16 0.00 0.00
5:35 pm 17:35 Sunny 13 -10.3 -7 -21.7 39 39 ENE 10 17 30.57 1035 10 16 0.00 0.00
5:55 pm 17:55 Sunny 13 -10.7 -7 -21.7 40 40 ENE 13 20 30.57 1035 10 16 0.00 0.00
6:15 pm 18:15 Sunny 12 -11 -7 -21.8 41 41 ENE 12 19 30.58 1035 10 16 0.00 0.00
6:35 pm 18:35 Clear 11 -11.7 -8 -22.1 42 42 ENE 8 13 30.58 1036 10 16 0.00 0.00
6:55 pm 18:55 Clear 9 -12.6 -8 -22.3 44 44 ENE 8 13 30.59 1036 10 16 0.00 0.00
7:15 pm 19:15 Clear 9 -12.6 -8 -22.3 44 44 NE 9 15 30.59 1036 10 16 0.00 0.00
7:35 pm 19:35 Clear 9 -13 -9 -22.5 45 45 ENE 9 15 30.60 1036 10 16 0.00 0.00
7:55 pm 19:55 Clear 8 -13.3 -9 -22.5 46 46 NE 10 17 30.61 1037 10 16 0.00 0.00
8:15 pm 20:15 Clear 8 -13.5 -9 -22.7 46 46 NE 12 19 30.61 1037 10 16 0.00 0.00
8:35 pm 20:35 Clear 7 -14 -9 -23 47 47 NE 9 15 30.62 1037 10 16 0.00 0.00
8:55 pm 20:55 Clear 6 -14.5 -9 -23 49 49 ENE 9 15 30.62 1037 10 16 0.00 0.00
9:15 pm 21:15 Clear 6 -14.7 -9 -22.8 50 50 ENE 8 13 30.64 1037 10 16 0.00 0.00
9:35 pm 21:35 Clear 5 -15 -9 -22.7 52 52 NE 9 15 30.65 1038 10 16 0.00 0.00
9:55 pm 21:55 Clear 4 -15.3 -9 -22.6 54 54 NE 8 13 30.64 1038 10 16 0.00 0.00
10:15 pm 22:15 Clear 4 -15.5 -9 -22.6 55 55 ENE 7 11 30.65 1038 10 16 0.00 0.00
10:35 pm 22:35 Clear 3 -16 -9 -22.8 56 56 NE 6 9 30.65 1038 10 16 0.00 0.00
10:55 pm 22:55 Clear 3 -16.2 -9 -22.6 58 58 NE 7 11 30.65 1038 10 16 0.00 0.00
11:15 pm 23:15 Clear 3 -16.2 -8 -22.4 59 59 NE 9 15 30.64 1038 10 16 0.00 0.00
11:35 pm 23:35 Clear 3 -16.3 -8 -22.3 60 60 NE 12 19 30.62 1037 10 16 0.00 0.00
11:55 pm 23:55 Clear 2 -16.5 -8 -22.3 61 61 NE 12 19 30.63 1037 10 16 0.00 0.00

Powered by AerisWeather